| time (UTC) | temp F | wind direction | speed MPH | gust MPH | rain 1hr in | rain 24hr in | rain mn in | humidity % | barometer mb |
| 20260507185041 | 68 | 211 | 7.0 | 18.0 | 0.00 | 0.00 | 0.00 | 44 | 1013.4 |
| 20260507184554 | 69 | 221 | 6.0 | 18.0 | 0.00 | 0.00 | 0.00 | 43 | 1013.5 |
| 20260507184041 | 69 | 239 | 4.0 | 18.0 | 0.00 | 0.00 | 0.00 | 44 | 1013.6 |
| 20260507183540 | 69 | 244 | 5.0 | 18.0 | 0.00 | 0.00 | 0.00 | 46 | 1013.7 |
| 20260507183101 | 69 | 180 | 5.0 | 18.0 | 0.00 | 0.00 | 0.00 | 45 | 1013.7 |
| 20260507182541 | 69 | 256 | 5.0 | 18.0 | 0.00 | 0.00 | 0.00 | 45 | 1013.7 |
| 20260507182041 | 68 | 244 | 6.0 | 18.0 | 0.00 | 0.00 | 0.00 | 45 | 1013.9 |
| 20260507181549 | 68 | 190 | 4.0 | 16.0 | 0.00 | 0.00 | 0.00 | 48 | 1013.8 |
| 20260507181040 | 68 | 285 | 5.0 | 13.0 | 0.00 | 0.00 | 0.00 | 47 | 1014.0 |
| 20260507180541 | 67 | 142 | 4.0 | 16.0 | 0.00 | 0.00 | 0.00 | 46 | 1014.0 |
| 20260507180055 | 67 | 238 | 4.0 | 16.0 | 0.00 | 0.00 | 0.00 | 45 | 1014.0 |
| 20260507175543 | 67 | 198 | 7.0 | 16.0 | 0.00 | 0.00 | 0.00 | 45 | 1014.2 |
| 20260507175041 | 67 | 252 | 4.0 | 17.0 | 0.00 | 0.00 | 0.00 | 47 | 1014.2 |
| 20260507174559 | 66 | 194 | 6.0 | 17.0 | 0.00 | 0.00 | 0.00 | 48 | 1014.5 |
| 20260507174040 | 66 | 230 | 6.0 | 17.0 | 0.00 | 0.00 | 0.00 | 48 | 1014.5 |
| 20260507173541 | 66 | 190 | 6.0 | 17.0 | 0.00 | 0.00 | 0.00 | 48 | 1014.5 |
| 20260507173125 | 66 | 234 | 3.0 | 13.0 | 0.00 | 0.00 | 0.00 | 51 | 1014.6 |
| 20260507172541 | 66 | 178 | 6.0 | 13.0 | 0.00 | 0.00 | 0.00 | 48 | 1014.7 |
| 20260507172040 | 65 | 254 | 5.0 | 15.0 | 0.00 | 0.00 | 0.00 | 49 | 1014.8 |
| 20260507171553 | 66 | 194 | 5.0 | 15.0 | 0.00 | 0.00 | 0.00 | 49 | 1015.0 |
| 20260507171041 | 66 | 200 | 3.0 | 11.0 | 0.00 | 0.00 | 0.00 | 50 | 1015.2 |
| 20260507170541 | 65 | 267 | 5.0 | 13.0 | 0.00 | 0.00 | 0.00 | 50 | 1015.3 |
| 20260507170055 | 66 | 194 | 4.0 | 14.0 | 0.00 | 0.00 | 0.00 | 50 | 1015.3 |
| 20260507165540 | 65 | 348 | 4.0 | 16.0 | 0.00 | 0.00 | 0.00 | 49 | 1015.4 |
| 20260507165042 | 64 | 243 | 7.0 | 16.0 | 0.00 | 0.00 | 0.00 | 51 | 1015.3 |
| 20260507164600 | 64 | 286 | 5.0 | 16.0 | 0.00 | 0.00 | 0.00 | 51 | 1015.5 |
| 20260507164042 | 64 | 355 | 6.0 | 16.0 | 0.00 | 0.00 | 0.00 | 50 | 1015.6 |
| 20260507163542 | 64 | 174 | 6.0 | 15.0 | 0.00 | 0.00 | 0.00 | 50 | 1015.5 |
| 20260507163054 | 65 | 202 | 4.0 | 14.0 | 0.00 | 0.00 | 0.00 | 49 | 1015.7 |
| 20260507162541 | 64 | 223 | 5.0 | 13.0 | 0.00 | 0.00 | 0.00 | 51 | 1015.7 |
| 20260507162041 | 64 | 241 | 5.0 | 13.0 | 0.00 | 0.00 | 0.00 | 50 | 1015.7 |
| 20260507161608 | 64 | 217 | 3.0 | 16.0 | 0.00 | 0.00 | 0.00 | 53 | 1015.8 |
| 20260507161041 | 63 | 227 | 7.0 | 16.0 | 0.00 | 0.00 | 0.00 | 52 | 1015.9 |
| 20260507160542 | 63 | 271 | 6.0 | 16.0 | 0.00 | 0.00 | 0.00 | 52 | 1015.9 |
| 20260507160116 | 63 | 240 | 4.0 | 16.0 | 0.00 | 0.00 | 0.00 | 53 | 1015.9 |
| 20260507155540 | 62 | 181 | 6.0 | 12.0 | 0.00 | 0.00 | 0.00 | 53 | 1016.0 |
| 20260507155043 | 62 | 196 | 4.0 | 12.0 | 0.00 | 0.00 | 0.00 | 53 | 1016.0 |
| 20260507154600 | 62 | 252 | 3.0 | 11.0 | 0.00 | 0.00 | 0.00 | 54 | 1016.1 |
| 20260507154042 | 62 | 188 | 4.0 | 12.0 | 0.00 | 0.00 | 0.00 | 54 | 1016.0 |
| 20260507153541 | 62 | 321 | 3.0 | 19.0 | 0.00 | 0.00 | 0.00 | 57 | 1016.0 |
| 20260507153101 | 61 | 217 | 7.0 | 19.0 | 0.00 | 0.00 | 0.00 | 53 | 1016.0 |
| 20260507152540 | 62 | 248 | 3.0 | 13.0 | 0.00 | 0.00 | 0.00 | 55 | 1016.1 |
| 20260507152041 | 61 | 166 | 3.0 | 13.0 | 0.00 | 0.00 | 0.00 | 56 | 1016.1 |
| 20260507151556 | 61 | 159 | 3.0 | 12.0 | 0.00 | 0.00 | 0.00 | 56 | 1016.2 |
| 20260507151042 | 60 | 170 | 5.0 | 14.0 | 0.00 | 0.00 | 0.00 | 56 | 1016.3 |
| 20260507150545 | 60 | 296 | 4.0 | 14.0 | 0.00 | 0.00 | 0.00 | 56 | 1016.5 |
| 20260507150054 | 59 | 159 | 5.0 | 13.0 | 0.00 | 0.00 | 0.00 | 56 | 1016.6 |
| 20260507145541 | 59 | 178 | 4.0 | 14.0 | 0.00 | 0.00 | 0.00 | 58 | 1016.6 |
| 20260507145044 | 59 | 296 | 4.0 | 14.0 | 0.00 | 0.00 | 0.00 | 57 | 1016.7 |
| 20260507144606 | 59 | 325 | 4.0 | 14.0 | 0.00 | 0.00 | 0.00 | 58 | 1016.8 |
| 20260507144041 | 59 | 194 | 5.0 | 14.0 | 0.00 | 0.00 | 0.00 | 60 | 1016.8 |
| 20260507143540 | 58 | 192 | 4.0 | 12.0 | 0.00 | 0.00 | 0.00 | 59 | 1016.8 |
| 20260507143106 | 57 | 225 | 3.0 | 12.0 | 0.00 | 0.00 | 0.00 | 60 | 1016.8 |
| 20260507142541 | 57 | 218 | 5.0 | 17.0 | 0.00 | 0.00 | 0.00 | 62 | 1016.8 |
| 20260507142044 | 57 | 248 | 5.0 | 17.0 | 0.00 | 0.00 | 0.00 | 63 | 1016.9 |
| 20260507141610 | 56 | 134 | 4.0 | 14.0 | 0.00 | 0.00 | 0.00 | 64 | 1016.9 |
| 20260507141045 | 56 | 226 | 3.0 | 12.0 | 0.00 | 0.00 | 0.00 | 64 | 1016.8 |
| 20260507140543 | 55 | 228 | 3.0 | 9.0 | 0.00 | 0.00 | 0.00 | 64 | 1016.7 |
| 20260507140101 | 55 | 216 | 2.0 | 10.0 | 0.00 | 0.00 | 0.00 | 66 | 1016.8 |
| 20260507135548 | 55 | 173 | 3.0 | 10.0 | 0.00 | 0.00 | 0.00 | 65 | 1016.9 |
| 20260507135044 | 54 | 324 | 3.0 | 11.0 | 0.00 | 0.00 | 0.00 | 67 | 1016.8 |
| 20260507134607 | 54 | 268 | 2.0 | 11.0 | 0.00 | 0.00 | 0.00 | 67 | 1016.7 |
| 20260507134044 | 54 | 280 | 3.0 | 9.0 | 0.00 | 0.00 | 0.00 | 67 | 1016.7 |
| 20260507133546 | 53 | 257 | 1.0 | 9.0 | 0.00 | 0.00 | 0.00 | 69 | 1016.7 |
| 20260507133108 | 53 | 307 | 2.0 | 7.0 | 0.00 | 0.00 | 0.00 | 71 | 1016.8 |
| 20260507132543 | 52 | 187 | 2.0 | 7.0 | 0.00 | 0.00 | 0.00 | 72 | 1016.9 |
| 20260507132043 | 51 | 227 | 2.0 | 7.0 | 0.00 | 0.00 | 0.00 | 74 | 1016.9 |
| 20260507131600 | 51 | 202 | 1.0 | 8.0 | 0.00 | 0.00 | 0.00 | 75 | 1016.9 |
| 20260507131044 | 50 | 248 | 3.0 | 8.0 | 0.00 | 0.00 | 0.00 | 76 | 1017.0 |
| 20260507130543 | 49 | 0 | 1.0 | 8.0 | 0.00 | 0.00 | 0.00 | 76 | 1016.9 |
| 20260507130107 | 49 | 228 | 2.0 | 9.0 | 0.00 | 0.00 | 0.00 | 77 | 1016.9 |
| 20260507125544 | 49 | 244 | 2.0 | 9.0 | 0.00 | 0.00 | 0.00 | 77 | 1016.9 |
| 20260507125045 | 48 | 199 | 2.0 | 6.0 | 0.00 | 0.00 | 0.00 | 78 | 1016.8 |
| 20260507124554 | 48 | 0 | 1.0 | 5.0 | 0.00 | 0.00 | 0.00 | 78 | 1016.8 |
| 20260507124044 | 47 | 219 | 2.0 | 5.0 | 0.00 | 0.00 | 0.00 | 79 | 1016.8 |
| 20260507123544 | 47 | 183 | 0.0 | 5.0 | 0.00 | 0.00 | 0.00 | 79 | 1016.9 |
| 20260507123057 | 47 | 0 | 1.0 | 5.0 | 0.00 | 0.00 | 0.00 | 80 | 1016.8 |
| 20260507122545 | 46 | 200 | 1.0 | 4.0 | 0.00 | 0.00 | 0.00 | 80 | 1016.9 |
| 20260507122047 | 46 | 236 | 1.0 | 4.0 | 0.00 | 0.00 | 0.00 | 81 | 1016.9 |
| 20260507121601 | 46 | 0 | 0.0 | 4.0 | 0.00 | 0.00 | 0.00 | 81 | 1016.9 |
| 20260507121044 | 45 | 0 | 0.0 | 4.0 | 0.00 | 0.00 | 0.00 | 82 | 1016.9 |
| 20260507120544 | 45 | 163 | 0.0 | 3.0 | 0.00 | 0.00 | 0.00 | 82 | 1017.0 |
| 20260507120053 | 45 | 183 | 0.0 | 3.0 | 0.00 | 0.00 | 0.00 | 82 | 1017.1 |
| 20260507115545 | 45 | 202 | 0.0 | 3.0 | 0.00 | 0.01 | 0.00 | 82 | 1017.0 |
| 20260507115045 | 44 | 192 | 0.0 | 3.0 | 0.00 | 0.01 | 0.00 | 83 | 1017.0 |
| 20260507114605 | 44 | 223 | 0.0 | 3.0 | 0.00 | 0.01 | 0.00 | 83 | 1016.9 |
| 20260507114047 | 44 | 0 | 0.0 | 3.0 | 0.00 | 0.01 | 0.00 | 83 | 1017.0 |
| 20260507113546 | 44 | 198 | 0.0 | 2.0 | 0.00 | 0.01 | 0.00 | 82 | 1017.0 |
| 20260507113055 | 44 | 0 | 0.0 | 4.0 | 0.00 | 0.01 | 0.00 | 82 | 1016.9 |
| 20260507112545 | 44 | 0 | 0.0 | 4.0 | 0.00 | 0.01 | 0.00 | 82 | 1016.9 |
| 20260507112045 | 45 | 0 | 1.0 | 4.0 | 0.00 | 0.01 | 0.00 | 81 | 1017.0 |
| 20260507111601 | 45 | 0 | 0.0 | 2.0 | 0.00 | 0.01 | 0.00 | 81 | 1016.9 |
| 20260507111045 | 45 | 0 | 0.0 | 2.0 | 0.00 | 0.01 | 0.00 | 80 | 1016.9 |
| 20260507110545 | 45 | 229 | 0.0 | 4.0 | 0.00 | 0.01 | 0.00 | 80 | 1017.0 |
| 20260507110052 | 45 | 0 | 0.0 | 4.0 | 0.00 | 0.01 | 0.00 | 80 | 1016.9 |
| 20260507105545 | 45 | 0 | 1.0 | 4.0 | 0.00 | 0.01 | 0.00 | 79 | 1016.8 |
| 20260507105043 | 45 | 0 | 0.0 | 2.0 | 0.00 | 0.01 | 0.00 | 79 | 1016.9 |
| 20260507104551 | 46 | 0 | 0.0 | 4.0 | 0.00 | 0.01 | 0.00 | 79 | 1016.9 |
| 20260507104044 | 46 | 0 | 0.0 | 4.0 | 0.00 | 0.01 | 0.00 | 78 | 1016.9 |
| 20260507103544 | 46 | 0 | 0.0 | 4.0 | 0.00 | 0.01 | 0.00 | 78 | 1016.8 |
| 20260507103049 | 46 | 178 | 0.0 | 4.0 | 0.00 | 0.01 | 0.00 | 78 | 1017.0 |
| 20260507102544 | 46 | 190 | 0.0 | 4.0 | 0.00 | 0.01 | 0.00 | 78 | 1016.9 |
| 20260507102044 | 46 | 206 | 0.0 | 4.0 | 0.00 | 0.01 | 0.00 | 78 | 1016.9 |
| 20260507101611 | 46 | 223 | 1.0 | 4.0 | 0.00 | 0.01 | 0.00 | 78 | 1017.0 |
| 20260507101045 | 46 | 0 | 1.0 | 4.0 | 0.00 | 0.01 | 0.00 | 77 | 1017.0 |
| 20260507100545 | 46 | 198 | 0.0 | 4.0 | 0.00 | 0.01 | 0.00 | 77 | 1017.1 |
| 20260507100051 | 46 | 223 | 0.0 | 3.0 | 0.00 | 0.01 | 0.00 | 77 | 1017.0 |
| 20260507095544 | 46 | 0 | 0.0 | 3.0 | 0.00 | 0.01 | 0.00 | 77 | 1017.1 |
| 20260507095044 | 46 | 217 | 0.0 | 2.0 | 0.00 | 0.01 | 0.00 | 77 | 1017.0 |
| 20260507094553 | 46 | 0 | 0.0 | 3.0 | 0.00 | 0.01 | 0.00 | 76 | 1017.1 |
| 20260507094043 | 47 | 0 | 0.0 | 3.0 | 0.00 | 0.01 | 0.00 | 76 | 1017.0 |
| 20260507093543 | 47 | 227 | 0.0 | 2.0 | 0.00 | 0.01 | 0.00 | 76 | 1017.2 |
| 20260507093057 | 47 | 0 | 0.0 | 2.0 | 0.00 | 0.01 | 0.00 | 75 | 1017.1 |
| 20260507092545 | 47 | 0 | 0.0 | 3.0 | 0.00 | 0.01 | 0.00 | 75 | 1017.1 |
| 20260507092044 | 47 | 0 | 0.0 | 3.0 | 0.00 | 0.01 | 0.00 | 74 | 1017.2 |
| 20260507091551 | 48 | 195 | 0.0 | 2.0 | 0.00 | 0.01 | 0.00 | 73 | 1017.1 |
| 20260507091044 | 48 | 215 | 0.0 | 2.0 | 0.00 | 0.01 | 0.00 | 73 | 1017.3 |
| 20260507090544 | 47 | 0 | 0.0 | 2.0 | 0.00 | 0.01 | 0.00 | 73 | 1017.3 |
| 20260507090110 | 48 | 0 | 0.0 | 2.0 | 0.00 | 0.01 | 0.00 | 72 | 1017.4 |
| 20260507085545 | 48 | 0 | 0.0 | 2.0 | 0.00 | 0.01 | 0.00 | 72 | 1017.4 |
| 20260507085044 | 48 | 0 | 0.0 | 3.0 | 0.00 | 0.01 | 0.00 | 71 | 1017.4 |
| 20260507084552 | 49 | 0 | 0.0 | 3.0 | 0.00 | 0.01 | 0.00 | 71 | 1017.3 |
| 20260507084045 | 49 | 228 | 0.0 | 4.0 | 0.00 | 0.01 | 0.00 | 70 | 1017.4 |
| 20260507083545 | 49 | 234 | 0.0 | 4.0 | 0.00 | 0.01 | 0.00 | 70 | 1017.4 |
| 20260507083052 | 49 | 252 | 0.0 | 4.0 | 0.00 | 0.01 | 0.00 | 70 | 1017.5 |
| 20260507082545 | 49 | 0 | 0.0 | 4.0 | 0.00 | 0.01 | 0.00 | 70 | 1017.5 |
| 20260507082045 | 49 | 0 | 1.0 | 4.0 | 0.00 | 0.01 | 0.00 | 71 | 1017.6 |
| 20260507081553 | 48 | 238 | 0.0 | 3.0 | 0.00 | 0.01 | 0.00 | 71 | 1017.6 |
| 20260507081047 | 49 | 204 | 0.0 | 4.0 | 0.00 | 0.01 | 0.00 | 71 | 1017.6 |
| 20260507080545 | 49 | 0 | 0.0 | 4.0 | 0.00 | 0.01 | 0.00 | 71 | 1017.6 |
| 20260507080055 | 49 | 0 | 0.0 | 6.0 | 0.00 | 0.01 | 0.00 | 70 | 1017.5 |
| 20260507075544 | 49 | 243 | 0.0 | 6.0 | 0.00 | 0.01 | 0.00 | 70 | 1017.5 |
| 20260507075044 | 49 | 226 | 1.0 | 4.0 | 0.00 | 0.01 | 0.00 | 70 | 1017.6 |
| 20260507074557 | 48 | 242 | 0.0 | 4.0 | 0.00 | 0.01 | 0.00 | 70 | 1017.6 |
| 20260507074043 | 48 | 0 | 0.0 | 4.0 | 0.00 | 0.01 | 0.00 | 71 | 1017.6 |
| 20260507073540 | 48 | 0 | 0.0 | 2.0 | 0.00 | 0.01 | 0.00 | 72 | 1017.6 |
| 20260507073049 | 47 | 0 | 0.0 | 1.0 | 0.00 | 0.01 | 0.00 | 72 | 1017.5 |
| 20260507072543 | 48 | 0 | 0.0 | 1.0 | 0.00 | 0.01 | 0.00 | 71 | 1017.6 |
| 20260507072040 | 48 | 0 | 0.0 | 1.0 | 0.00 | 0.01 | 0.00 | 70 | 1017.6 |
| 20260507071553 | 49 | 0 | 0.0 | 1.0 | 0.00 | 0.01 | 0.00 | 69 | 1017.6 |
| 20260507071043 | 49 | 0 | 0.0 | 1.0 | 0.00 | 0.01 | 0.00 | 68 | 1017.8 |
| 20260507070541 | 49 | 0 | 0.0 | 3.0 | 0.00 | 0.01 | 0.00 | 67 | 1017.9 |
| 20260507070056 | 50 | 0 | 0.0 | 3.0 | 0.00 | 0.01 | 0.00 | 67 | 1017.9 |
| 20260507065540 | 50 | 238 | 0.0 | 3.0 | 0.00 | 0.01 | 0.00 | 67 | 1017.9 |
| 20260507065040 | 50 | 0 | 0.0 | 3.0 | 0.00 | 0.01 | 0.00 | 67 | 1017.9 |
| 20260507064606 | 50 | 0 | 0.0 | 3.0 | 0.00 | 0.01 | 0.00 | 67 | 1018.0 |
| 20260507064041 | 50 | 0 | 0.0 | 5.0 | 0.00 | 0.01 | 0.00 | 66 | 1018.1 |
| 20260507063540 | 50 | 0 | 1.0 | 5.0 | 0.00 | 0.01 | 0.00 | 66 | 1018.1 |
| 20260507063054 | 50 | 231 | 0.0 | 3.0 | 0.00 | 0.01 | 0.00 | 66 | 1018.1 |
| 20260507062541 | 50 | 0 | 0.0 | 3.0 | 0.00 | 0.01 | 0.00 | 66 | 1018.1 |
| 20260507062041 | 51 | 274 | 0.0 | 3.0 | 0.00 | 0.01 | 0.00 | 65 | 1018.2 |
| 20260507061553 | 51 | 324 | 0.0 | 3.0 | 0.00 | 0.01 | 0.00 | 65 | 1018.3 |
| 20260507061041 | 51 | 0 | 0.0 | 3.0 | 0.00 | 0.01 | 0.00 | 64 | 1018.2 |
| 20260507060540 | 51 | 236 | 0.0 | 4.0 | 0.00 | 0.01 | 0.00 | 64 | 1018.3 |
| 20260507060054 | 51 | 0 | 0.0 | 4.0 | 0.00 | 0.01 | 0.00 | 63 | 1018.5 |
| 20260507055541 | 51 | 303 | 0.0 | 2.0 | 0.00 | 0.01 | 0.00 | 63 | 1018.4 |
| 20260507055040 | 51 | 342 | 0.0 | 3.0 | 0.00 | 0.01 | 0.00 | 62 | 1018.3 |
| 20260507054604 | 51 | 0 | 0.0 | 3.0 | 0.00 | 0.01 | 0.00 | 62 | 1018.4 |
| 20260507054042 | 51 | 0 | 0.0 | 3.0 | 0.00 | 0.01 | 0.00 | 62 | 1018.3 |
| 20260507053540 | 51 | 0 | 0.0 | 3.0 | 0.00 | 0.01 | 0.00 | 62 | 1018.3 |
| 20260507053047 | 51 | 0 | 0.0 | 2.0 | 0.00 | 0.01 | 0.00 | 62 | 1018.3 |
| 20260507052543 | 51 | 245 | 0.0 | 2.0 | 0.00 | 0.01 | 0.00 | 63 | 1018.5 |
| 20260507052040 | 51 | 0 | 0.0 | 2.0 | 0.00 | 0.01 | 0.00 | 63 | 1018.4 |
| 20260507051547 | 50 | 0 | 0.0 | 2.0 | 0.00 | 0.01 | 0.00 | 64 | 1018.4 |
| 20260507051041 | 50 | 0 | 0.0 | 2.0 | 0.00 | 0.01 | 0.00 | 63 | 1018.4 |
| 20260507050542 | 50 | 0 | 0.0 | 2.0 | 0.00 | 0.01 | 0.00 | 63 | 1018.4 |
| 20260507050052 | 50 | 0 | 0.0 | 2.0 | 0.00 | 0.01 | 0.00 | 63 | 1018.4 |
| 20260507045545 | 50 | 0 | 0.0 | 2.0 | 0.00 | 0.02 | 0.01 | 63 | 1018.4 |
| 20260507045041 | 50 | 0 | 0.0 | 2.0 | 0.00 | 0.02 | 0.01 | 63 | 1018.5 |
| 20260507044547 | 50 | 0 | 0.0 | 2.0 | 0.00 | 0.02 | 0.01 | 62 | 1018.4 |
| 20260507044043 | 50 | 0 | 0.0 | 2.0 | 0.00 | 0.02 | 0.01 | 63 | 1018.3 |
| 20260507043547 | 50 | 0 | 0.0 | 2.0 | 0.00 | 0.02 | 0.01 | 62 | 1018.5 |
| 20260507043058 | 50 | 0 | 0.0 | 2.0 | 0.00 | 0.02 | 0.01 | 62 | 1018.4 |
| 20260507042545 | 50 | 0 | 0.0 | 2.0 | 0.00 | 0.02 | 0.01 | 62 | 1018.4 |
| 20260507042044 | 50 | 0 | 0.0 | 2.0 | 0.00 | 0.02 | 0.01 | 62 | 1018.5 |
| 20260507041603 | 50 | 0 | 0.0 | 2.0 | 0.00 | 0.02 | 0.01 | 63 | 1018.6 |
| 20260507041045 | 49 | 0 | 0.0 | 0.0 | 0.00 | 0.02 | 0.01 | 63 | 1018.5 |
| 20260507040545 | 50 | 0 | 0.0 | 0.0 | 0.00 | 0.02 | 0.01 | 63 | 1018.6 |
| 20260507040057 | 50 | 0 | 0.0 | 0.0 | 0.00 | 0.02 | 0.01 | 62 | 1018.7 |
| 20260507035545 | 50 | 0 | 0.0 | 0.0 | 0.00 | 0.03 | 0.01 | 62 | 1018.5 |
| 20260507035044 | 50 | 0 | 0.0 | 0.0 | 0.00 | 0.03 | 0.01 | 62 | 1018.4 |
| 20260507034556 | 50 | 0 | 0.0 | 2.0 | 0.00 | 0.03 | 0.01 | 61 | 1018.5 |
| 20260507034044 | 50 | 0 | 0.0 | 2.0 | 0.00 | 0.03 | 0.01 | 60 | 1018.5 |
| 20260507033544 | 50 | 0 | 0.0 | 2.0 | 0.00 | 0.03 | 0.01 | 60 | 1018.4 |
| 20260507033053 | 49 | 0 | 0.0 | 1.0 | 0.00 | 0.03 | 0.01 | 62 | 1018.6 |
| 20260507032544 | 49 | 0 | 0.0 | 0.0 | 0.00 | 0.03 | 0.01 | 64 | 1018.6 |
| 20260507032044 | 49 | 0 | 0.0 | 1.0 | 0.00 | 0.03 | 0.01 | 65 | 1018.6 |
| 20260507031552 | 49 | 0 | 0.0 | 1.0 | 0.00 | 0.03 | 0.01 | 64 | 1018.6 |
| 20260507031045 | 49 | 0 | 0.0 | 1.0 | 0.00 | 0.03 | 0.01 | 63 | 1018.7 |
| 20260507030544 | 48 | 0 | 0.0 | 1.0 | 0.00 | 0.03 | 0.01 | 64 | 1018.6 |
| 20260507025545 | 48 | 0 | 0.0 | 0.0 | 0.00 | 0.03 | 0.01 | 66 | 1018.5 |
| 20260507025044 | 48 | 0 | 0.0 | 0.0 | 0.00 | 0.03 | 0.01 | 65 | 1018.5 |
| 20260507024559 | 48 | 0 | 0.0 | 0.0 | 0.00 | 0.03 | 0.01 | 65 | 1018.3 |
| 20260507024044 | 48 | 0 | 0.0 | 0.0 | 0.00 | 0.03 | 0.01 | 64 | 1018.3 |
| 20260507023544 | 48 | 0 | 0.0 | 0.0 | 0.00 | 0.03 | 0.01 | 63 | 1018.3 |
| 20260507023111 | 48 | 0 | 0.0 | 0.0 | 0.00 | 0.03 | 0.01 | 64 | 1018.2 |
| 20260507022544 | 48 | 0 | 0.0 | 0.0 | 0.00 | 0.03 | 0.01 | 64 | 1018.1 |
| 20260507022044 | 49 | 0 | 0.0 | 0.0 | 0.00 | 0.03 | 0.01 | 63 | 1018.3 |
| 20260507021557 | 49 | 0 | 0.0 | 0.0 | 0.00 | 0.03 | 0.01 | 61 | 1018.1 |
| 20260507021044 | 49 | 0 | 0.0 | 0.0 | 0.00 | 0.03 | 0.01 | 61 | 1018.2 |
| 20260507020544 | 49 | 0 | 0.0 | 0.0 | 0.00 | 0.03 | 0.01 | 60 | 1018.0 |
| 20260507020057 | 50 | 0 | 0.0 | 0.0 | 0.00 | 0.03 | 0.01 | 59 | 1018.0 |
| 20260507015544 | 50 | 0 | 0.0 | 0.0 | 0.00 | 0.03 | 0.01 | 58 | 1017.9 |
| 20260507015044 | 50 | 0 | 0.0 | 0.0 | 0.00 | 0.03 | 0.01 | 58 | 1017.9 |
| 20260507014606 | 51 | 0 | 0.0 | 0.0 | 0.00 | 0.03 | 0.01 | 57 | 1017.8 |
| 20260507014044 | 51 | 0 | 0.0 | 0.0 | 0.00 | 0.03 | 0.01 | 55 | 1017.8 |
| 20260507013544 | 51 | 0 | 0.0 | 0.0 | 0.00 | 0.03 | 0.01 | 54 | 1017.7 |
| 20260507013112 | 52 | 0 | 0.0 | 0.0 | 0.00 | 0.03 | 0.01 | 53 | 1017.6 |
| 20260507012541 | 52 | 0 | 0.0 | 0.0 | 0.00 | 0.03 | 0.01 | 52 | 1017.7 |
| 20260507012040 | 53 | 0 | 0.0 | 0.0 | 0.00 | 0.03 | 0.01 | 51 | 1017.6 |
| 20260507011551 | 54 | 0 | 0.0 | 0.0 | 0.00 | 0.03 | 0.01 | 50 | 1017.7 |
| 20260507011044 | 55 | 0 | 0.0 | 0.0 | 0.00 | 0.03 | 0.01 | 46 | 1017.7 |
| 20260507010544 | 55 | 0 | 0.0 | 0.0 | 0.00 | 0.03 | 0.01 | 44 | 1017.7 |
| 20260507010052 | 56 | 0 | 0.0 | 0.0 | 0.00 | 0.03 | 0.01 | 43 | 1017.7 |
| 20260507005543 | 56 | 0 | 0.0 | 3.0 | 0.00 | 0.03 | 0.01 | 41 | 1017.8 |
| 20260507005044 | 57 | 0 | 0.0 | 3.0 | 0.00 | 0.03 | 0.01 | 40 | 1017.8 |
| 20260507004550 | 57 | 0 | 0.0 | 3.0 | 0.00 | 0.03 | 0.01 | 40 | 1017.8 |
| 20260507004044 | 58 | 0 | 0.0 | 3.0 | 0.00 | 0.03 | 0.01 | 37 | 1017.6 |
| 20260507003544 | 58 | 0 | 0.0 | 3.0 | 0.00 | 0.03 | 0.01 | 35 | 1017.6 |
| 20260507003052 | 58 | 316 | 0.0 | 4.0 | 0.00 | 0.03 | 0.01 | 38 | 1017.5 |
| 20260507002543 | 58 | 285 | 0.0 | 4.0 | 0.00 | 0.03 | 0.01 | 37 | 1017.6 |
| 20260507002043 | 58 | 313 | 0.0 | 2.0 | 0.00 | 0.03 | 0.01 | 37 | 1017.7 |
| 20260507001607 | 58 | 0 | 0.0 | 2.0 | 0.00 | 0.03 | 0.01 | 37 | 1017.6 |
| 20260507001047 | 59 | 286 | 0.0 | 1.0 | 0.00 | 0.03 | 0.01 | 36 | 1017.6 |
| 20260507000545 | 59 | 0 | 0.0 | 4.0 | 0.00 | 0.03 | 0.01 | 35 | 1017.6 |
| 20260507000052 | 59 | 0 | 0.0 | 4.0 | 0.00 | 0.03 | 0.01 | 35 | 1017.5 |
| 20260506235544 | 59 | 0 | 0.0 | 4.0 | 0.00 | 0.03 | 0.01 | 38 | 1017.5 |
| 20260506235044 | 59 | 0 | 0.0 | 4.0 | 0.00 | 0.03 | 0.01 | 36 | 1017.6 |
| 20260506234554 | 59 | 0 | 0.0 | 5.0 | 0.00 | 0.03 | 0.01 | 35 | 1017.7 |
| 20260506234048 | 60 | 0 | 0.0 | 5.0 | 0.00 | 0.03 | 0.01 | 36 | 1017.7 |
| 20260506233544 | 60 | 0 | 1.0 | 5.0 | 0.00 | 0.03 | 0.01 | 36 | 1017.8 |
| 20260506233102 | 60 | 321 | 0.0 | 5.0 | 0.00 | 0.03 | 0.01 | 38 | 1017.7 |
| 20260506232544 | 60 | 0 | 0.0 | 4.0 | 0.00 | 0.03 | 0.01 | 34 | 1017.7 |
| 20260506232044 | 60 | 343 | 0.0 | 5.0 | 0.00 | 0.03 | 0.01 | 35 | 1017.9 |
| 20260506231552 | 60 | 0 | 0.0 | 5.0 | 0.00 | 0.03 | 0.01 | 38 | 1017.8 |
| 20260506231044 | 60 | 157 | 0.0 | 3.0 | 0.00 | 0.03 | 0.01 | 35 | 1017.7 |
| 20260506230544 | 60 | 0 | 0.0 | 3.0 | 0.00 | 0.03 | 0.01 | 34 | 1017.8 |
| 20260506230056 | 60 | 0 | 0.0 | 4.0 | 0.00 | 0.03 | 0.01 | 35 | 1017.9 |
| 20260506225544 | 60 | 0 | 0.0 | 4.0 | 0.00 | 0.03 | 0.01 | 35 | 1017.9 |
| 20260506225041 | 60 | 0 | 0.0 | 3.0 | 0.00 | 0.03 | 0.01 | 35 | 1017.9 |
| 20260506224554 | 59 | 0 | 0.0 | 5.0 | 0.00 | 0.03 | 0.01 | 35 | 1017.9 |
| 20260506224043 | 60 | 40 | 1.0 | 5.0 | 0.00 | 0.03 | 0.01 | 32 | 1017.9 |
| 20260506223547 | 61 | 317 | 1.0 | 6.0 | 0.00 | 0.03 | 0.01 | 34 | 1017.8 |
| 20260506223113 | 61 | 355 | 0.0 | 6.0 | 0.00 | 0.03 | 0.01 | 34 | 1017.9 |
| 20260506222544 | 61 | 304 | 1.0 | 4.0 | 0.00 | 0.03 | 0.01 | 34 | 1017.8 |
| 20260506222044 | 61 | 319 | 1.0 | 4.0 | 0.00 | 0.03 | 0.01 | 34 | 1017.8 |
| 20260506221602 | 61 | 0 | 0.0 | 4.0 | 0.00 | 0.03 | 0.01 | 34 | 1017.9 |
| 20260506221044 | 61 | 0 | 0.0 | 6.0 | 0.00 | 0.03 | 0.01 | 34 | 1017.9 |
| 20260506220544 | 61 | 19 | 1.0 | 6.0 | 0.00 | 0.03 | 0.01 | 35 | 1017.9 |
| 20260506220056 | 61 | 350 | 0.0 | 3.0 | 0.00 | 0.03 | 0.01 | 34 | 1018.0 |
| 20260506215544 | 61 | 0 | 0.0 | 3.0 | 0.00 | 0.03 | 0.01 | 33 | 1018.0 |
| 20260506215043 | 62 | 355 | 0.0 | 3.0 | 0.00 | 0.03 | 0.01 | 35 | 1018.1 |
| 20260506214604 | 61 | 0 | 0.0 | 2.0 | 0.00 | 0.03 | 0.01 | 34 | 1018.0 |
| 20260506214045 | 61 | 0 | 0.0 | 3.0 | 0.00 | 0.03 | 0.01 | 33 | 1018.1 |
| 20260506213545 | 61 | 0 | 0.0 | 5.0 | 0.00 | 0.03 | 0.01 | 34 | 1018.2 |
| 20260506213054 | 61 | 36 | 0.0 | 5.0 | 0.00 | 0.03 | 0.01 | 35 | 1018.2 |
| 20260506212541 | 61 | 11 | 0.0 | 6.0 | 0.00 | 0.03 | 0.01 | 36 | 1018.2 |
| 20260506212044 | 62 | 0 | 0.0 | 6.0 | 0.00 | 0.03 | 0.01 | 32 | 1018.4 |
| 20260506211556 | 62 | 349 | 1.0 | 6.0 | 0.00 | 0.03 | 0.01 | 35 | 1018.4 |
| 20260506211041 | 62 | 24 | 0.0 | 4.0 | 0.00 | 0.03 | 0.01 | 34 | 1018.5 |
| 20260506210544 | 63 | 314 | 0.0 | 4.0 | 0.00 | 0.03 | 0.01 | 34 | 1018.6 |
| 20260506210052 | 62 | 313 | 0.0 | 8.0 | 0.00 | 0.03 | 0.01 | 33 | 1018.7 |
| 20260506205544 | 63 | 0 | 2.0 | 8.0 | 0.00 | 0.03 | 0.01 | 34 | 1018.8 |
| 20260506205044 | 61 | 38 | 1.0 | 5.0 | 0.00 | 0.03 | 0.01 | 34 | 1018.8 |
| 20260506204555 | 61 | 137 | 0.0 | 6.0 | 0.00 | 0.03 | 0.01 | 35 | 1018.9 |
| 20260506204043 | 61 | 0 | 0.0 | 6.0 | 0.00 | 0.03 | 0.01 | 36 | 1019.0 |
| 20260506203543 | 62 | 48 | 1.0 | 6.0 | 0.00 | 0.03 | 0.01 | 31 | 1019.1 |
| 20260506203100 | 62 | 0 | 2.0 | 7.0 | 0.00 | 0.03 | 0.01 | 36 | 1019.2 |
| 20260506202546 | 62 | 0 | 1.0 | 7.0 | 0.00 | 0.03 | 0.01 | 31 | 1019.1 |
| 20260506202044 | 62 | 0 | 0.0 | 3.0 | 0.00 | 0.03 | 0.01 | 39 | 1019.4 |
| 20260506201552 | 61 | 350 | 1.0 | 6.0 | 0.00 | 0.03 | 0.01 | 37 | 1019.3 |
| 20260506201047 | 61 | 0 | 0.0 | 9.0 | 0.00 | 0.03 | 0.01 | 32 | 1019.4 |
| 20260506200543 | 63 | 288 | 2.0 | 9.0 | 0.00 | 0.03 | 0.01 | 33 | 1019.6 |
| 20260506200135 | 62 | 275 | 1.0 | 11.0 | 0.00 | 0.03 | 0.01 | 34 | 1019.7 |
| 20260506195543 | 62 | 340 | 1.0 | 11.0 | 0.00 | 0.03 | 0.01 | 35 | 1019.8 |
| 20260506195046 | 61 | 0 | 2.0 | 11.0 | 0.00 | 0.03 | 0.01 | 34 | 1019.6 |
| 20260506194550 | 62 | 347 | 0.0 | 8.0 | 0.00 | 0.03 | 0.01 | 36 | 1019.7 |
| 20260506194043 | 62 | 325 | 2.0 | 8.0 | 0.00 | 0.03 | 0.01 | 36 | 1019.5 |
| 20260506193546 | 61 | 24 | 0.0 | 4.0 | 0.00 | 0.03 | 0.01 | 36 | 1019.6 |
| 20260506193051 | 59 | 0 | 1.0 | 6.0 | 0.00 | 0.03 | 0.01 | 34 | 1019.6 |
| 20260506192543 | 60 | 58 | 1.0 | 7.0 | 0.00 | 0.03 | 0.01 | 34 | 1019.7 |
| 20260506192043 | 61 | 0 | 1.0 | 7.0 | 0.00 | 0.03 | 0.01 | 35 | 1019.5 |
| 20260506191552 | 60 | 20 | 1.0 | 4.0 | 0.00 | 0.03 | 0.01 | 39 | 1019.5 |
| 20260506191044 | 61 | 0 | 1.0 | 6.0 | 0.00 | 0.03 | 0.01 | 35 | 1019.4 |
| 20260506190546 | 61 | 27 | 1.0 | 6.0 | 0.00 | 0.03 | 0.01 | 37 | 1019.6 |
| 20260506190055 | 58 | 0 | 2.0 | 5.0 | 0.00 | 0.03 | 0.01 | 35 | 1019.6 |
| 20260506185548 | 60 | 39 | 0.0 | 4.0 | 0.00 | 0.03 | 0.01 | 39 | 1019.7 |